Regional Weather Roundup
Issued by NWS

Home | Current Version | Previous Version | Graphics & Text | Print | Product List | Glossary On
Versions: 1 2 3 4 5 6 7 8 9 10 11 12 13 14 15 16 17 18 19 20 21 22 23 24 25 26 27 28 29 30 31 32 33 34 35 36 37 38 39 40 41 42 43 44 45 46 47 48 49 50
000
ASUS43 KFSD 080310
RWRSD

WEATHER ROUNDUP FOR SOUTH DAKOTA
NATIONAL WEATHER SERVICE SIOUX FALLS SD
900 PM CST SUN FEB 07 2016

NOTE: "FAIR" INDICATES FEW OR NO CLOUDS BELOW 12,000 FEET WITH NO
SIGNIFICANT WEATHER AND/OR OBSTRUCTIONS TO VISIBILITY.


SDZ001>005-009-010-012>017-080400-
NORTHWEST AND NORTH CENTRAL SOUTH DAKOTA

CITY           SKY/WX    TMP DP  RH WIND       PRES   REMARKS
BUFFALO          N/A     29  14  53 NW25G33   30.22R WCI  14
FAITH            N/A     31  14  49 NW33G44   30.19R WCI  15
MOBRIDGE       CLOUDY    35  16  45 NW26G41   30.07S WCI  22
$$

SDZ012>016-024>037-041>051-057-063-072>074-080400-
SOUTHWEST AND SOUTH CENTRAL SOUTH DAKOTA

CITY           SKY/WX    TMP DP  RH WIND       PRES   REMARKS
RAPID CTY ARPT CLEAR     32  10  40 NW32G40   30.25S WCI  17
PIERRE         CLEAR     33  16  49 NW21G32   30.14R WCI  21
CUSTER         CLEAR     22   5  48 NW18G37   30.22R WCI   7
ELLSWORTH AFB  CLEAR     32  10  40 NW30G39   30.24S WCI  17
PHILIP         CLEAR     32  17  54 NW20G26   30.22S WCI  20
PINE RIDGE     CLEAR     30   7  37 NW15      30.27R WCI  19
SPEARFISH      MIX PCPN  28   9  43 NW23G33   30.32R WCI  14
WINNER         FAIR      31  17  56 NW23G31   30.15R WCI  18
$$

SDZ004>011-016>023-039-040-080400-
NORTHEAST SOUTH DAKOTA

CITY           SKY/WX    TMP DP  RH WIND       PRES   REMARKS
ABERDEEN       CLOUDY    28  18  66 N20G31    30.03R WCI  15
WATERTOWN      LGT SNOW  21  15  78 NW32G38   29.93R WCI   2
BROOKINGS      FLURRIES  22  16  78 N28G36    29.91F WCI   4
SISSETON         N/A     20  16  84 N24G35    29.95S WCI   3
$$

SDZ017-020-022-023-036>040-048>070-080400-
SOUTHEAST SOUTH DAKOTA

CITY           SKY/WX    TMP DP  RH WIND       PRES   REMARKS
SIOUX FALLS    LGT SNOW  25  19  78 N28       29.95S WCI   9
HURON          PTCLDY    27  20  75 NW22      30.02R WCI  13
CHAMBERLAIN    PTCLDY    32  17  53 NW25G32   30.12R WCI  18
MITCHELL       PTCLDY    29  22  75 NW15      30.05R WCI  18
YANKTON        CLOUDY    30  21  69 NW25G32   30.02S WCI  16
$$

ABBREVIATIONS USED IN REMARKS
   TC - TEMPERATURE IN CELSIUS
  WCI - WIND CHILL INDEX
   HX - HEAT INDEX
  VSB - VISIBILITY




USA.gov is the U.S. government's official web portal to all federal, state and local government web resources and services.